Agassiz, British Columbia

10:24 AM PST on January 16, 2018 (GMT -0800)
Agassiz

Weather History for CWZA - October, 2012

Change the Weather History Date:

Saturday, October 13, 2012

  Actual Average Record
Temperature  
Mean Temperature 54 °F -  
Max Temperature 59 °F 54 °F - ()
Min Temperature 50 °F 41 °F - ()
Degree Days  
Heating Degree Days 10    
Growing Degree Days 4 (Base 50)    
Moisture  
Dew Point 54 °F    
Average Humidity 97    
Maximum Humidity 99    
Minimum Humidity 86    
Precipitation  
Precipitation 0.16 in 0.27 in - ()
Sea Level Pressure  
Sea Level Pressure 30.05 in    
Wind  
Wind Speed 1 mph ()    
Max Wind Speed 4 mph    
Max Gust Speed -    
T = Trace of Precipitation, MM = Missing Value Source: Averaged Metar Reports

Daily Weather History Graph

Daily Weather History Graph

Search for Another Location

Airport or City:

Trip Planner

Search our weather history database for the weather conditions in past years. The results will help you decide how hot, cold, wet, or windy it might be!

Date:

Astronomy

Oct. 13, 2012 Rise Set
Actual Time 7:25 AM PDT 6:19 PM PDT
Civil Twilight 6:53 AM PDT 6:51 PM PDT
Nautical Twilight 6:16 AM PDT 7:28 PM PDT
Astronomical Twilight 5:39 AM PDT 8:05 PM PDT
Moon 5:14 AM PDT (10/13) 5:10 PM PDT (10/13)
Length of Visible Light 11h 57m
Length of Day
10h 53m
Waning Crescent, 4% of the Moon is Illuminated
Oct 13
Waning Crescent
Oct 15
New
Oct 21
First Quarter
Oct 29
Full
Nov 6
Last Quarter

Hourly Weather History & Observations

Time (PDT) Temp. Dew Point Humidity Pressure Visibility Wind Dir Wind Speed Gust Speed Precip Events Conditions
12:00 AM 51.8 °F 51.4 °F 99% 29.94 in - Calm Calm - 0.02 in   Unknown
2:00 AM 52.0 °F 51.8 °F 99% 29.98 in - SSE 1.2 mph - 0.04 in   Unknown
3:00 AM 52.2 °F 52.0 °F 99% 29.99 in - SE 2.3 mph - 0.07 in   Unknown
4:00 AM 52.5 °F 52.3 °F 99% 30.00 in - Calm Calm - 0.05 in   Unknown
5:00 AM 52.5 °F 52.3 °F 99% 30.01 in - Calm Calm - 0.10 in   Unknown
6:00 AM 53.1 °F 52.9 °F 99% 30.02 in - SSW 1.2 mph - N/A   Unknown
7:00 AM 53.2 °F 53.1 °F 99% 30.04 in - SE 3.5 mph - N/A   Unknown
8:00 AM 53.2 °F 53.1 °F 99% 30.06 in - West 1.2 mph - N/A   Unknown
9:00 AM 53.6 °F 53.4 °F 99% 30.06 in - NNW 1.2 mph - 0.04 in   Unknown
10:00 AM 54.7 °F 54.3 °F 99% 30.07 in - SSE 3.5 mph - N/A   Unknown
11:00 AM 56 °F 55 °F 95% 30.09 in - SSE 2.3 mph - -  
11:00 AM 56.5 °F 55.0 °F 95% 30.09 in - SSE 2.3 mph - N/A   Unknown
12:00 PM 57.0 °F 55.2 °F 94% 30.08 in - NNE 1.2 mph - 0.04 in   Unknown
1:00 PM 58.1 °F 55.4 °F 91% 30.06 in - NE 2.3 mph - 0.02 in   Unknown
2:00 PM 57.0 °F 55.2 °F 94% 30.09 in - North 1.2 mph - 0.04 in   Unknown
3:00 PM 58.8 °F 54.5 °F 86% 30.09 in - Calm Calm - N/A   Unknown
6:00 PM 57.0 °F 55.9 °F 96% 30.08 in - Calm Calm - 0.04 in   Unknown
7:00 PM 56.3 °F 55.6 °F 97% 30.08 in - ENE 1.2 mph - 0.02 in   Unknown
8:00 PM 56.5 °F 55.9 °F 98% 30.07 in - Calm Calm - N/A   Unknown
9:00 PM 56.5 °F 56.1 °F 99% 30.07 in - North 2.3 mph - 0.03 in   Unknown
10:00 PM 56.3 °F 55.9 °F 99% 30.06 in - North 1.2 mph - 0.05 in   Unknown
11:00 PM 57 °F 57 °F 98% 30.01 in - NW 2.3 mph - -  
11:00 PM 57.0 °F 56.7 °F 99% 30.01 in - NW 2.3 mph - 0.04 in   Unknown